Regional Weather Roundup
Issued by NWS

Home | Current Version | Previous Version | Graphics & Text | Print | Product List | Glossary On
Versions: 1 2 3 4 5 6 7 8 9 10 11 12 13 14 15 16 17 18 19 20 21 22 23 24 25 26 27 28 29 30 31 32 33 34 35 36 37 38 39 40 41 42 43 44 45 46 47 48 49 50
796
ASUS43 KMPX 220601
RWRMN
WEATHER ROUNDUP FOR MINNESOTA
NATIONAL WEATHER SERVICE TWIN CITIES/CHANHASSEN MN
100 AM CDT SUN OCT 22 2017


NOTE: "FAIR" INDICATES FEW OR NO CLOUDS BELOW 12,000 FEET WITH NO
SIGNIFICANT WEATHER AND/OR OBSTRUCTIONS TO VISIBILITY. N/A MEANS
CURRENT SKY AND/OR WEATHER CONDITIONS ARE NOT AVAILABLE.

MNZ060>063-068>070-220700-
   Twin Cities Metro

CITY           SKY/WX    TMP DP  RH WIND       PRES   REMARKS
TWIN CITIES    CLOUDY    52  45  77 W9        29.87R
6HR MIN TEMP:  52; 6HR MAX TEMP:  68; 6HR PCP:  0.02;

ST PAUL        CLOUDY    52  45  77 W10       29.87R
CRYSTAL        MOCLDY    50  42  74 SW7       29.85R
BLAINE         CLOUDY    52  46  82 SW6       29.86R
LAKEVILLE      CLOUDY    48  45  87 W3        29.88R
EDEN PRAIRIE   PTCLDY    50  44  80 W7        29.86R
6HR MIN TEMP:  50; 6HR MAX TEMP:  58; 6HR PCP:  0.05;

SOUTH ST PAUL  CLOUDY    53  43  69 W5        29.86R
LAKE ELMO      FAIR      52  45  76 W9        29.87R
$$
MNZ001>005-007-008-013>017-022>024-027-028-220700-
   Northwest Minnesota

CITY           SKY/WX    TMP DP  RH WIND       PRES   REMARKS
BEMIDJI        CLOUDY    48  42  80 SW8       29.68S
HALLOCK        CLOUDY    48  41  76 W14G21    29.60S
ROSEAU         CLOUDY    52  43  71 SW10      29.59R
WARROAD        CLOUDY    50  45  81 SW9G17    29.59R
CROOKSTON      CLOUDY    50  36  57 W20       29.67R
FOSSTON        CLOUDY    46  39  76 SW10      29.68R
DETROIT LAKES  MOCLDY    50  41  71 W13       29.76R
MOORHEAD       CLOUDY    50  37  62 W14       29.78R
PARK RAPIDS    MOCLDY    46  42  86 SW9       29.73R
MAHNOMEN       CLOUDY    48  38  68 W20G28    29.71R
$$
MNZ006-009>011-018-025>026-220700-
   North Central Minnesota

CITY           SKY/WX    TMP DP  RH WIND       PRES   REMARKS
BAUDETTE       CLOUDY    50  43  77 SW10      29.60R
FLAG ISLAND    CLOUDY    50  45  81 SW10      29.55R
INTL FALLS     MOCLDY    47  44  90 S6        29.63R
6HR MIN TEMP:  47; 6HR MAX TEMP:  62; 6HR PCP:  0.10;

WASKISH        CLOUDY    50  45  81 SW14G20   29.65R
BIG FORK       CLOUDY    46  43  87 S6        29.69R
LONGVILLE      CLEAR     46  45  93 SW3       29.73R
GRAND RAPIDS   PTCLDY    47  45  93 S7        29.74R
CRANE LAKE     CLOUDY    52  48  87 CALM      29.68R
ORR            PTCLDY    48  45  87 SW5       29.65R
COOK           PTCLDY    50  46  87 SW9       29.69R
WALKER         FAIR      47  42  84 SW8       29.72R
$$
MNZ012-019>021-037-220700-
   Northeast Minnesota

CITY           SKY/WX    TMP DP  RH WIND       PRES   REMARKS
DULUTH         CLOUDY    52  50  93 W13       29.74R
6HR MIN TEMP:  52; 6HR MAX TEMP:  63; 6HR PCP:  0.03;

ELY            CLOUDY    52  50  93 W8G18     29.69R
HIBBING        CLOUDY    49  46  90 SW5       29.72R
EVELETH        CLOUDY    53  51  94 SW9       29.73R
DULUTH HARBOR  CLOUDY    54  52  94 SW14      29.75R
TWO HARBORS    CLOUDY    57  52  82 W10       29.70R
GRAND MARAIS     N/A     58  58 100 N5        29.68F
G MARAIS ARPRT CLOUDY    57  54  88 S7        29.71F FOG
$$
MNZ029>031-032-039>041-046>048-054>057-064-220700-
   West Central Minnesota

CITY           SKY/WX    TMP DP  RH WIND       PRES   REMARKS
FERGUS FALLS   PTCLDY    46  39  76 W12       29.82R
WHEATON        CLEAR     48  37  66 W8        29.85R
MORRIS         CLEAR     46  41  81 W10       29.83R
ALEXANDRIA     CLEAR     46  40  79 W12       29.83R
ELBOW LAKE     FAIR      46  39  79 SW10      29.84R
WADENA         CLEAR     45  39  81 SW7       29.77R
GLENWOOD       CLEAR     45  41  87 W9G16     29.84R
APPLETON       CLEAR     46  39  76 SW8       29.85S
BENSON         CLEAR     45  39  81 W7        29.86R
ORTONVILLE     CLEAR     46  39  76 W5        29.85R
MADISON        CLEAR     48  41  76 W5        29.87S
WILLMAR        FAIR      45  41  87 SW8       29.88R
$$
MNZ033>034-036-042>043-049>051-058-059-220700-
   Central Minnesota

CITY           SKY/WX    TMP DP  RH WIND       PRES   REMARKS
ST CLOUD       CLEAR     46  43  89 SW7       29.84R
6HR MIN TEMP:  46; 6HR MAX TEMP:  54;

SAUK CENTRE    FAIR      45  41  86 SW13      29.83R
PAYNESVILLE    PTCLDY    46  43  86 SW10      29.86R
AITKIN         CLEAR     43  41  93 S5        29.76R
PINE RIVER     CLEAR     43  39  87 S3        29.79R
BRAINERD       CLEAR    N/A N/A N/A S8        29.79R
STAPLES        CLEAR     45  39  81 SW8       29.78R
LONG PRAIRIE   FAIR      43  41  93 S6        29.82R
LITTLE FALLS   PTCLDY    43  37  81 S5        29.82R
LITCHFIELD     CLOUDY    46  45  93 SW5       29.87R
BUFFALO        CLEAR     48  43  82 SW3       29.87R
MAPLE LAKE     CLEAR     47  44  90 SW5       29.87R
HUTCHINSON     CLEAR     47  43  88 SW5       29.88S
$$
MNZ037-044-045-052-053-220700-
   East Central Minnesota

CITY           SKY/WX    TMP DP  RH WIND       PRES   REMARKS
PRINCETON      PTCLDY    48  45  87 CALM      29.84R
MORA           MOCLDY    46  41  81 SW6       29.83R
CAMBRIDGE      CLOUDY    50  46  87 S5        29.84R
RUSH CITY      CLOUDY    49  44  83 SW7       29.83R
MOOSE LAKE     MOCLDY    50  45  81 CALM      29.76R
HINCKLEY       FAIR      48  46  93 SW6       29.80R
CLOQUET        CLOUDY    52  46  82 W7        29.76R
MCGREGOR       PTCLDY    46  43  87 SW3       29.77R
$$
MNZ071>073-080-081-089-090-097-098-220700-
   Southwest Minnesota

CITY           SKY/WX    TMP DP  RH WIND       PRES   REMARKS
MONTEVIDEO     CLEAR     46  39  76 W8        29.87S
GRANITE FALLS  CLEAR     47  41  81 SW12      29.89F
CANBY          CLEAR     48  39  72 SW10      29.89F
MARSHALL       CLEAR     46  39  76 W10       29.90R
REDWOOD FALLS  PTCLDY    46  39  76 SW9       29.89R
OLIVIA         CLEAR     43  39  87 SW6       29.88S
PIPESTONE      CLEAR     39  36  87 W6        29.92S
WORTHINGTON    CLEAR     43  38  82 W7        29.93F
JACKSON        PTCLDY    43  37  81 SW7       29.93F
TRACY          CLEAR     47  40  76 W8        29.91S
SLAYTON        CLEAR     45  38  78 W8        29.92S
$$
MNZ065>067-074>077-082>085-091>093-220700-
   South Central Minnesota

CITY           SKY/WX    TMP DP  RH WIND       PRES   REMARKS
MANKATO        MOCLDY    48  43  82 W7        29.90R
NEW ULM          N/A     46  39  76 SW6       29.90R
ST JAMES       MOCLDY    46  41  81 SW7       29.92S
FAIRMONT       CLOUDY    48  42  80 W8        29.92S
GLENCOE        CLOUDY    48  44  84 SW6       29.87R
FARIBAULT      CLOUDY    50  45  81 W7        29.90R
OWATONNA       PTCLDY    48  45  87 W5        29.90R
WASECA         PTCLDY    46  43  87 W7        29.91S
$$
MNZ078>079-086>088-094>096-220700-
   Southeast Minnesota

CITY           SKY/WX    TMP DP  RH WIND       PRES   REMARKS
ROCHESTER      CLOUDY    51  46  83 W12       29.89R
6HR MIN TEMP:  51; 6HR MAX TEMP:  67; 6HR PCP:  0.29;

RED WING       CLOUDY    54  45  71 W9        29.87R
STANTON        CLOUDY    51  45  77 W5        29.88R
DODGE CENTER   CLOUDY    50  43  76 W9        29.90R
WINONA         LGT RAIN  54  52  94 NW6       29.86S
AUSTIN         CLOUDY    50  45  81 NW10      29.89S
PRESTON        CLOUDY    52  49  90 NW10G16   29.88R
$$
ABBREVIATIONS USED IN REMARKS
   TC - TEMPERATURES IN CELSIUS
  WCI - WIND CHILL INDEX
   HX - HEAT INDEX
  VSB - VISIBILITY
$$




USA.gov is the U.S. government's official web portal to all federal, state and local government web resources and services.